Regional Weather Roundup
Issued by NWS

Home | Current Version | Previous Version | Text Only | Print | Product List | Glossary Off
Versions: 1 2 3 4 5 6 7 8 9 10 11 12 13 14 15 16 17 18 19 20 21 22 23 24 25 26 27 28 29 30 31 32 33 34 35 36 37 38 39 40 41 42 43 44 45 46 47 48 49 50

000
ASUS43 KBIS 160210
RWRND

NORTH DAKOTA REGIONAL WEATHER ROUNDUP
NATIONAL WEATHER SERVICE BISMARCK ND
900 PM CDT TUE APR 15 2014

NOTE: "FAIR" INDICATES FEW OR NO CLOUDS BELOW 12,000 FEET WITH NO
SIGNIFICANT WEATHER AND/OR OBSTRUCTIONS TO VISIBILITY.


NDZ001>003-009>011-017-160300-
NORTHWEST NORTH DAKOTA

CITY           SKY/WX    TMP DP  RH WIND       PRES   REMARKS
WILLISTON      CLOUDY    40  25  55 SE25      29.66R
MINOT          CLOUDY    29  20  69 E22G29    29.80R WCI  15
MINOT AFB      CLOUDY    30  20  68 E22       29.80R WCI  16
$$

NDZ018>021-031>035-040>046-160300-
SOUTHWEST NORTH DAKOTA

CITY           SKY/WX    TMP DP  RH WIND       PRES   REMARKS
BISMARCK       CLOUDY    34  17  50 E21G29    29.74R
DICKINSON      CLOUDY    43  23  45 SE20      29.57F
GARRISON         N/A     33  19  56 E18G30    29.73R
HETTINGER ARPT CLOUDY    46  25  43 NE13      29.59R
$$

NDZ004>008-012>016-024-026-027-054-160300-
NORTHEAST NORTH DAKOTA

CITY           SKY/WX    TMP DP  RH WIND       PRES   REMARKS
GRAND FORKS    CLOUDY    31  13  47 E6        29.98R
GRND FRKS AFB  CLOUDY    30  13  49 E7        30.01R
DEVILS LAKE    CLOUDY    28  12  50 E17       29.92S WCI  16
$$

NDZ022-023-025-028>030-036>039-047>053-160300-
SOUTHEAST NORTH DAKOTA

CITY           SKY/WX    TMP DP  RH WIND       PRES   REMARKS
FARGO          CLOUDY    33  11  39 SE13      29.97F
JAMESTOWN      CLOUDY    28  23  81 E22G29    29.86R WCI  14
$$




USA.gov is the U.S. government's official web portal to all federal, state and local government web resources and services.